Weather reports worldwide

Advertisment
Shawbury, United Kingdom (3414): temperature & dewpoint: 11.10.2018 22:00:00 - 17.10.2018 22:00:00 (BST)Shawbury, United Kingdom (3414): temperature -20cm & temperature -100cm: 11.10.2018 22:00:00 - 17.10.2018 22:00:00 (BST)Shawbury, United Kingdom (3414): wind speed & gusts: 11.10.2018 22:00:00 - 17.10.2018 22:00:00 (BST)Shawbury, United Kingdom (3414): wind direction: 11.10.2018 22:00:00 - 17.10.2018 22:00:00 (BST)Shawbury, United Kingdom (3414): reduced air pressure: 11.10.2018 22:00:00 - 17.10.2018 22:00:00 (BST)Shawbury, United Kingdom (3414): visibility: 11.10.2018 22:00:00 - 17.10.2018 22:00:00 (BST)Shawbury, United Kingdom (3414): sunshine duration: 11.10.2018 22:00:00 - 17.10.2018 22:00:00 (BST)Shawbury, United Kingdom (3414): precipitation: 11.10.2018 22:00:00 - 17.10.2018 22:00:00 (BST)
Date & Time tt [°C] td [°C] tt -20cm [°C] tt -100cm [°C] ff [km/h] ff [kn] fx [km/h] fx [kn] dd ppp [hPa] vv [km] sd [min] rr [mm]
17.10.2018 22:00:00 8,3 7,7 - - 9 5 - - NNW 1025,9 15 0 0,0
17.10.2018 21:00:00 9,7 8,5 - - 11 6 - - NNW 1025,3 19 0 0,0
17.10.2018 20:00:00 9,8 8,8 - - 11 6 - - NNW 1024,4 20 0 0,0
17.10.2018 19:00:00 10,5 9,0 - - 11 6 - - NNW 1023,5 10 0 0,0
17.10.2018 18:00:00 12,1 9,7 - - 15 8 - - N 1022,4 10 12 0,0
17.10.2018 17:00:00 13,6 10,5 - - 13 7 - - N 1021,7 10 0 0,0
17.10.2018 16:00:00 14,1 9,7 - - 9 5 - - NNW 1021,0 25 0 0,0
17.10.2018 15:00:00 14,6 10,3 - - 9 5 - - N 1020,5 25 6 0,0
17.10.2018 14:00:00 14,5 9,7 - - 9 5 - - NNW 1020,2 10 0 0,0
17.10.2018 13:00:00 14,7 9,8 - - 8 4 - - N 1019,8 10 0 0,0
17.10.2018 12:00:00 14,1 10,9 - - 8 4 - - NNW 1019,5 10 24 0,0
17.10.2018 11:00:00 13,4 11,0 - - 8 4 - - W 1019,0 20 24 0,0
17.10.2018 10:00:00 11,6 10,4 13,2 13,4 4 2 - - SW 1018,6 10 30 0,0
17.10.2018 09:00:00 9,5 9,5 - - 9 5 - - WSW 1017,8 18 6 0,0
17.10.2018 08:00:00 7,9 7,0 - - 5 3 - - W 1017,3 10 0 0,0
17.10.2018 07:00:00 10,7 10,0 - - 5 3 - - SW 1016,4 10 0 0,0
17.10.2018 06:00:00 11,1 10,4 - - 8 4 - - S 1015,7 10 0 0,0
17.10.2018 05:00:00 10,8 10,1 - - 8 4 - - SW 1015,3 24 0 0,0
17.10.2018 04:00:00 11,3 10,5 - - 2 1 - - S 1015,0 16 0 0,0
17.10.2018 03:00:00 11,5 10,8 - - 11 6 - - S 1014,9 15 0 0,0
17.10.2018 02:00:00 12,6 10,1 - - 13 7 - - SSW 1015,0 11 0 0,0
17.10.2018 01:00:00 13,0 10,3 - - 24 13 - - S 1014,7 9 - 0,0
17.10.2018 00:00:00 12,4 9,6 - - 8 4 - - SE 1014,6 30 0 0,0
16.10.2018 23:00:00 12,8 9,4 - - 9 5 - - S 1014,6 29 0 0,0
16.10.2018 22:00:00 12,7 9,3 - - 16 9 - - S 1014,7 30 0 0,0
16.10.2018 21:00:00 12,9 9,1 - - 16 9 - - SSW 1014,6 16 0 0,0
16.10.2018 20:00:00 13,0 10,1 - - 18 10 - - S 1014,2 22 0 0,0
16.10.2018 19:00:00 13,3 10,6 - - 16 9 - - S 1013,9 10 0 0,0
16.10.2018 18:00:00 14,4 11,0 - - 18 10 - - SSW 1013,7 40 18 0,0
16.10.2018 17:00:00 14,6 11,8 - - 24 13 - - SW 1013,6 30 0 0,0
16.10.2018 16:00:00 15,5 12,3 - - 16 9 - - SW 1013,6 10 0 0,0
16.10.2018 15:00:00 15,3 12,9 - - 13 7 - - S 1013,6 18 0 0,0
16.10.2018 14:00:00 15,2 13,3 - - 15 8 - - SSE 1013,5 10 0 0,0
16.10.2018 13:00:00 14,9 12,6 - - 18 10 - - S 1013,6 18 0 0,0
16.10.2018 12:00:00 13,7 12,3 - - 16 9 - - SSE 1013,8 10 0 0,0
16.10.2018 11:00:00 13,0 12,1 - - 16 9 - - S 1014,2 10 0 0,0
16.10.2018 10:00:00 12,2 11,6 13,0 13,5 13 7 - - SSE 1014,1 10 0 0,0
16.10.2018 09:00:00 11,9 11,4 - - 11 6 - - SSE 1014,4 10 0 0,0
16.10.2018 08:00:00 11,5 11,4 - - 8 4 - - SE 1014,0 6 0 0,0
16.10.2018 07:00:00 11,1 11,1 - - 9 5 - - SE 1013,6 3,0 0 0,0
16.10.2018 06:00:00 11,0 11,0 - - 9 5 - - SE 1014,1 3,0 0 0,0
16.10.2018 05:00:00 11,0 11,0 - - 13 7 - - SSE 1014,1 7 0 0,0
16.10.2018 04:00:00 10,7 10,6 - - 8 4 - - SE 1014,2 4,9 0 0,0
16.10.2018 03:00:00 10,3 10,3 - - 8 4 - - ESE 1014,2 2,5 0 0,2
16.10.2018 02:00:00 10,1 10,1 - - 8 4 - - ESE 1014,8 2,3 0 0,0
16.10.2018 01:00:00 10,0 9,9 - - 9 5 - - ESE 1015,0 5 - 0,0
16.10.2018 00:00:00 10,0 9,8 - - 9 5 - - E 1015,3 6 0 0,0
15.10.2018 23:00:00 10,0 9,8 - - 9 5 - - E 1015,3 7 0 0,0
15.10.2018 22:00:00 10,0 10,0 - - 9 5 - - E 1015,5 4,5 0 0,2
15.10.2018 21:00:00 10,0 9,8 - - 8 4 - - ENE 1015,6 3,0 0 0,0
15.10.2018 20:00:00 10,2 9,5 - - 8 4 - - ENE 1015,3 5 0 0,0
15.10.2018 19:00:00 10,7 9,5 - - 9 5 - - NE 1015,3 13 0 0,0
15.10.2018 18:00:00 10,9 9,9 - - 5 3 - - NE 1014,8 18 0 0,0
15.10.2018 17:00:00 10,7 9,9 - - 8 4 - - NNE 1014,7 10 0 0,0
15.10.2018 16:00:00 10,4 9,8 - - 8 4 - - NE 1014,6 6 0 0,6
15.10.2018 15:00:00 10,5 9,6 - - 9 5 - - N 1014,6 5 0 0,6
15.10.2018 14:00:00 11,3 9,1 - - 8 4 - - NNE 1014,1 18 0 0,0
15.10.2018 13:00:00 11,0 8,6 - - 11 6 - - NNE 1014,2 10 0 0,0
15.10.2018 12:00:00 10,2 8,0 - - 11 6 - - NNE 1013,9 10 0 0,0
15.10.2018 11:00:00 9,6 7,4 - - 13 7 - - NNE 1013,9 20 0 0,0
15.10.2018 10:00:00 8,9 7,1 13,2 13,5 13 7 - - N 1013,9 20 0 0,0
15.10.2018 09:00:00 8,1 7,0 - - 9 5 - - N 1013,7 20 0 0,0
15.10.2018 08:00:00 7,6 6,6 - - 8 4 - - NNW 1013,3 20 0 0,0
15.10.2018 07:00:00 7,7 6,5 - - 9 5 - - NNW 1012,7 10 0 0,0
15.10.2018 06:00:00 7,7 6,4 - - 11 6 - - NNW 1011,9 10 0 0,0
15.10.2018 05:00:00 7,5 6,4 - - 9 5 - - NNW 1012,3 16 0 0,0
15.10.2018 04:00:00 7,4 6,3 - - 9 5 - - NNW 1012,1 18 0 0,0
15.10.2018 03:00:00 7,4 6,1 - - 9 5 - - NNW 1012,4 16 0 0,0
15.10.2018 02:00:00 7,5 6,0 - - 9 5 - - NNW 1012,7 19 0 0,0
15.10.2018 01:00:00 7,5 6,3 - - 8 4 - - NNW 1012,3 21 - 0,0
15.10.2018 00:00:00 6,6 5,8 - - 8 4 - - NNW 1012,0 10 0 0,0
14.10.2018 23:00:00 6,6 5,8 - - 5 3 - - N 1012,0 15 0 0,0
14.10.2018 22:00:00 6,4 5,8 - - 8 4 - - NNW 1012,1 30 0 0,0
14.10.2018 21:00:00 7,3 6,4 - - 5 3 - - N 1011,5 40 0 0,0
14.10.2018 20:00:00 7,2 6,1 - - 5 3 - - N 1011,2 35 0 0,0
14.10.2018 19:00:00 7,2 5,8 - - 5 3 - - NNW 1011,2 45 0 0,0
14.10.2018 18:00:00 10,0 6,6 - - 8 4 - - N 1010,1 45 54 0,0
14.10.2018 17:00:00 11,5 7,1 - - 5 3 - - NW 1009,6 35 42 0,0
14.10.2018 16:00:00 11,2 7,1 - - 5 3 - - NNE 1009,1 45 18 0,0
14.10.2018 15:00:00 10,7 7,9 - - 8 4 - - NNE 1008,6 35 0 0,0
14.10.2018 14:00:00 10,1 8,4 - - 9 5 - - ENE 1008,4 35 0 0,0
14.10.2018 13:00:00 9,9 8,8 - - 13 7 - - E 1008,7 28 0 0,6
14.10.2018 12:00:00 9,9 8,9 - - 8 4 - - NE 1009,3 10 0 1,6
14.10.2018 11:00:00 10,0 8,5 - - 13 7 - - NNE 1008,9 8 0 3,0
14.10.2018 10:00:00 10,4 9,7 14,0 13,4 11 6 - - NW 1008,5 5 0 1,0
14.10.2018 09:00:00 10,4 9,9 - - 9 5 - - NNW 1007,8 9 0 1,4
14.10.2018 08:00:00 10,4 9,6 - - 13 7 - - NW 1007,6 9 0 0,6
14.10.2018 07:00:00 10,6 9,2 - - 11 6 - - NNW 1007,0 16 0 0,2
14.10.2018 06:00:00 11,4 9,0 - - 13 7 - - NW 1006,8 40 0 0,0
14.10.2018 05:00:00 12,0 9,1 - - 16 9 - - W 1006,5 45 0 0,0
14.10.2018 04:00:00 12,4 10,2 - - 16 9 - - WSW 1005,9 45 0 0,0
14.10.2018 03:00:00 13,9 10,5 - - 21 11 - - SW 1005,0 35 0 0,0
14.10.2018 02:00:00 15,0 10,3 - - 28 15 - - SSW 1003,9 30 0 0,0
14.10.2018 01:00:00 15,8 11,5 - - 18 10 - - S 1003,4 28 - 0,0
14.10.2018 00:00:00 16,4 10,6 - - 26 14 48 26 S 1003,3 30 0 0,0
13.10.2018 23:00:00 16,4 12,3 - - 24 13 - - SSW 1003,3 28 0 0,0
13.10.2018 22:00:00 17,6 13,2 - - 28 15 52 28 S 1002,5 28 0 0,0
13.10.2018 21:00:00 18,2 13,4 - - 31 17 57 31 S 1002,2 30 0 0,0
13.10.2018 20:00:00 19,0 13,9 - - 41 22 65 35 S 1001,7 10 0 0,0
13.10.2018 19:00:00 18,9 15,3 - - 35 19 50 27 S 1000,9 25 0 0,0
13.10.2018 18:00:00 19,0 15,8 - - 35 19 55 30 S 1000,1 27 0 0,0
13.10.2018 17:00:00 18,7 15,8 - - 46 25 67 36 S 1000,2 9 0 0,0
13.10.2018 16:00:00 20,3 15,1 - - 50 27 72 39 S 1000,2 27 0 0,0
13.10.2018 15:00:00 21,1 14,9 - - 48 26 76 41 S 1000,0 30 30 0,0
13.10.2018 14:00:00 21,4 15,8 - - 48 26 68 37 S 1000,6 10 6 0,0
13.10.2018 13:00:00 19,5 16,3 - - 37 20 61 33 S 1001,4 35 0 -
13.10.2018 12:00:00 19,5 16,5 - - 42 23 67 36 S 1001,9 26 0 0,2
13.10.2018 11:00:00 19,6 17,1 - - 44 24 65 35 S 1001,9 20 0 0,0
13.10.2018 10:00:00 18,8 17,0 13,7 13,2 41 22 61 33 S 1002,1 35 0 0,8
13.10.2018 09:00:00 18,7 16,8 - - 39 21 59 32 SSE 1001,9 22 0 0,0
13.10.2018 08:00:00 18,5 16,8 - - 35 19 54 29 SSE 1002,0 30 0 0,0
13.10.2018 07:00:00 18,1 16,9 - - 28 15 - - S 1002,5 16 0 0,2
13.10.2018 06:00:00 17,9 17,1 - - 24 13 - - S 1002,8 20 0 0,2
13.10.2018 05:00:00 16,1 16,0 - - 8 4 - - S 1003,5 24 0 0,0
13.10.2018 04:00:00 16,4 16,0 - - 18 10 - - SSW 1004,1 30 0 3,2
13.10.2018 03:00:00 16,6 16,6 - - 8 4 - - SW 1004,6 2,0 0 7,2
13.10.2018 02:00:00 17,5 16,9 - - 15 8 - - S 1004,3 5 0 0,8
13.10.2018 01:00:00 17,8 16,6 - - 24 13 - - S 1004,1 16 - 0,4
13.10.2018 00:00:00 17,6 16,6 - - 22 12 - - S 1004,1 16 0 0,6
12.10.2018 23:00:00 17,4 16,3 - - 26 14 - - S 1003,8 8 0 0,2
12.10.2018 22:00:00 17,8 16,0 - - 26 14 - - S 1003,2 40 0 0,2
12.10.2018 21:00:00 17,6 15,8 - - 26 14 - - SSE 1002,6 10 0 0,2
12.10.2018 20:00:00 17,6 15,7 - - 31 17 52 28 S 1002,1 26 0 0,0
12.10.2018 19:00:00 18,3 15,5 - - 35 19 55 30 S 1001,5 35 0 0,0
12.10.2018 18:00:00 18,0 15,5 - - 39 21 57 31 S 1000,4 24 0 0,0
12.10.2018 17:00:00 17,9 15,3 - - 37 20 61 33 S 1000,0 10 0 0,0
12.10.2018 16:00:00 18,1 15,2 - - 41 22 68 37 S 1000,0 10 0 0,0
12.10.2018 15:00:00 17,6 14,6 - - 44 24 76 41 S 999,2 10 0 0,0
12.10.2018 14:00:00 16,7 14,5 - - 48 26 70 38 S 999,7 10 0 0,4
12.10.2018 13:00:00 15,8 14,3 - - 39 21 67 36 SSE 999,5 10 0 1,6
12.10.2018 12:00:00 15,7 14,0 - - 39 21 55 30 S 1000,3 10 0 0,6
12.10.2018 11:00:00 15,6 14,0 - - 35 19 52 28 S 1001,2 10 0 0,8
12.10.2018 10:00:00 15,7 13,7 13,0 13,2 41 22 70 38 S 1001,3 10 0 0,2
12.10.2018 09:00:00 15,7 13,1 - - 42 23 68 37 S 1000,3 10 0 0,0
12.10.2018 08:00:00 15,0 12,5 - - 44 24 65 35 S 1000,0 10 0 0,0
12.10.2018 07:00:00 14,0 11,8 - - 35 19 57 31 S 999,7 10 0 0,0
12.10.2018 06:00:00 13,8 10,8 - - 35 19 55 30 S 999,9 10 0 0,0
12.10.2018 05:00:00 13,5 10,3 - - 24 13 - - SSE 1000,6 30 0 0,0
12.10.2018 04:00:00 12,9 9,8 - - 26 14 - - SSE 1001,3 30 0 0,0
12.10.2018 03:00:00 12,6 10,7 - - 24 13 - - SSE 1001,8 28 0 0,0
12.10.2018 02:00:00 11,9 11,0 - - 15 8 - - SSE 1003,0 26 0 0,0
12.10.2018 01:00:00 9,8 9,2 - - 11 6 - - SE 1003,3 30 - 0,0
12.10.2018 00:00:00 9,7 9,6 - - 4 2 - - SE 1003,8 35 0 0,0
11.10.2018 23:00:00 8,0 7,0 - - 5 3 - - E 1003,8 30 0 0,0
11.10.2018 22:00:00 7,8 6,5 - - 5 3 - - WSW 1003,7 30 0 0,0

tt = temperature
td = dewpoint
tt -20cm = temperature -20cm
tt -100cm = temperature -100cm
ff = wind speed
fx = gusts
dd = wind direction
ppp = reduced air pressure
vv = visibility
sd = sunshine duration
rr = precipitation

Next stations